VRMM Airport Information

Runway Information
Runway 18 Length 10499 ft width 148 ft
Elevation 6 ft Threshold 328 ft Heading 179
Runway 36 Length 10499 ft Width 148 ft
Elevation 5 ft Threshold 952 ft Heading 359
Airport Frequencies
Type APP Name APP Frequency 119.7 MHZ
Type GND Name GND Frequency 121.6 MHZ
Type TWR Name TWR Frequency 118.1 MHZ
Airport Navaids
Type NDB Name Male Frequency 252 KHZ
Type VOR-DME Name Male Frequency 114700 KHZ
Airport Weather Information & NOTAM
ADDS - METARS form results

(0400 UTC 25 March 2019)
Data provider http://aviationweather.gov/metar/data/
 
Forecast for: VRMM (MALE INTL/HULULE, MV)
Text: TAF VRMM 242300Z 2500/2606 09010KT 9999 FEW018
Forecast period: 0000 UTC 25 March 2019 to 0600 UTC 26 March 2019
Forecast type: FROM: standard forecast or significant change
Winds: from the E (90 degrees) at 12 MPH (10 knots; 5.1 m/s)
Visibility: 6 or more miles 10+ km)
Ceiling: at least 12,000 feet AGL
Clouds: few clouds at 1800 feet AGL
Weather: no significant weather forecast for this period